Theta_e
349 356 362 361 361 361 362 360 360 362 360 361 364 363 364 363 361 360 360 362 362 362 362 361 362 362 362 363 363 363 363 363 362 360 362 362 362 363 363 363 364 359 362
353 357 362 362 359 359 361 362 360 362 360 360 360 360 362 362 360 359 361 361 361 362 362 362 360 359 360 361 361 361 362 362 362 361 360 361 361 361 363 361 362 359 362
354 358 357 361 359 360 361 363 362 362 362 361 362 359 360 362 361 361 360 359 359 358 358 358 359 360 358 356 356 357 358 358 357 359 357 354 355 360 364 361 359 359 359
353 353 356 361 361 361 363 362 363 362 362 363 362 361 361 361 361 360 359 359 359 358 358 357 356 356 356 357 356 355 353 353 355 356 356 356 354 359 363 361 361 361 361
351 352 354 361 361 362 362 363 364 363 362 362 362 363 362 362 360 359 358 357 357 356 355 355 355 355 355 354 355 356 355 354 354 355 353 353 350 359 361 360 360 361 362
350 353 359 361 361 361 362 363 363 362 361 362 362 362 362 361 361 360 361 360 359 359 358 357 357 355 354 354 356 357 357 356 355 352 349 351 350 359 362 361 361 360 361
352 354 357 365 364 361 362 362 362 363 363 363 362 361 361 361 360 359 359 358 358 357 357 357 358 359 360 360 357 356 357 356 351 349 348 347 351 362 362 362 362 361 361
353 355 358 364 364 364 363 362 363 364 363 362 360 360 359 358 358 357 357 357 357 357 358 358 359 359 360 361 361 362 362 362 357 353 349 347 352 362 364 365 364 363 362
355 355 355 357 360 364 364 363 363 361 359 358 357 356 356 356 357 357 358 359 359 360 361 361 361 361 361 362 362 363 363 363 359 356 354 354 355 362 362 363 365 364 365
353 354 352 352 355 355 358 364 362 359 356 356 357 359 359 359 360 360 363 364 361 361 362 362 362 363 364 363 363 362 362 361 354 351 352 353 357 357 359 361 362 364 365
349 351 352 351 351 350 352 357 361 357 358 360 360 360 361 353 354 359 361 364 362 363 364 364 365 366 367 363 358 359 360 347 350 349 349 353 354 353 355 354 358 361 362
343 346 348 351 350 348 353 351 349 350 352 352 353 352 355 353 353 359 362 366 368 368 368 369 369 365 360 349 352 353 347 346 343 345 346 354 353 353 353 352 354 360 363
340 343 346 349 348 346 347 345 347 349 350 351 351 351 354 358 356 358 361 360 360 366 363 365 364 361 346 342 343 341 343 343 341 343 346 349 355 357 354 352 355 360 360
338 341 345 347 347 345 346 345 346 348 348 350 352 352 354 352 345 350 354 354 356 356 358 358 358 356 347 344 342 340 343 344 343 344 344 351 353 354 355 349 355 359 362
337 341 344 344 345 345 346 346 347 349 350 350 354 356 357 348 347 352 354 354 356 357 358 356 353 354 349 345 346 347 339 340 341 344 346 351 357 358 358 352 359 359 358
338 341 343 346 352 350 351 353 353 351 352 352 353 353 360 353 353 355 352 354 351 349 354 353 352 350 352 351 350 351 346 344 343 348 348 345 356 357 356 356 358 357 356
340 343 343 346 352 349 353 351 353 352 350 349 352 354 358 356 354 350 349 344 347 341 353 354 354 353 353 353 353 352 351 347 349 352 352 346 349 355 353 354 354 353 354
342 342 344 351 352 349 350 353 353 355 350 348 349 352 354 359 356 350 348 344 345 349 351 349 337 349 347 345 341 343 344 353 350 351 351 347 350 353 357 357 354 353 356
343 343 343 347 349 351 350 353 356 354 350 352 352 352 356 357 359 354 348 340 350 349 352 350 341 349 348 348 350 345 343 350 350 351 350 350 349 350 349 351 355 354 353
342 344 343 346 347 350 351 352 353 355 352 354 353 354 357 347 360 354 349 347 351 352 353 349 346 350 351 351 354 350 344 346 347 350 349 347 341 345 347 347 345 347 350
341 340 342 345 346 349 348 350 348 347 350 351 354 357 355 352 355 354 352 352 352 352 350 350 351 348 348 347 344 342 342 343 343 339 336 334 339 340 341 342 341 343 344
341 340 342 345 347 350 350 349 349 348 350 351 354 354 353 355 352 351 353 354 356 353 352 350 345 345 347 347 341 337 331 334 339 334 333 333 334 331 334 338 341 339 339
339 340 343 344 349 350 351 349 351 351 349 347 346 346 349 357 353 352 352 353 355 356 354 350 348 347 343 346 347 340 331 327 331 336 333 333 332 329 331 335 338 337 336
338 342 343 347 348 348 348 348 346 344 342 345 350 347 348 353 352 355 351 354 354 358 354 352 357 351 346 343 343 345 339 338 333 329 331 330 331 329 328 332 333 335 336
339 340 342 344 349 346 344 345 345 344 345 347 350 348 347 350 353 353 353 354 356 360 357 356 354 353 350 346 346 344 340 339 338 334 329 327 328 328 329 331 333 333 333
339 342 343 343 346 348 346 345 345 344 345 343 348 349 354 350 351 354 355 355 359 358 358 357 352 352 349 351 348 346 341 338 336 334 330 328 323 329 332 332 330 333 333
Wind_Speed
3 6 11 13 15 16 18 18 16 16 17 17 16 15 15 14 14 12 11 12 12 13 13 12 12 11 11 10 11 10 10 9 7 6 6 7 9 8 10 11 12 9 13
11 8 13 12 14 15 16 16 16 14 15 15 15 15 14 13 13 12 11 11 10 10 10 9 9 8 9 8 8 7 7 7 6 6 5 5 7 6 9 10 9 8 11
12 10 11 12 14 15 14 14 14 15 14 14 13 13 13 12 11 10 9 9 8 7 7 6 6 6 5 4 5 5 5 4 3 4 3 2 2 3 11 11 10 11 11
13 8 10 13 13 13 14 14 13 14 14 12 12 12 11 11 10 9 8 7 7 6 5 4 4 4 3 1 1 2 1 2 2 2 2 2 3 5 10 10 10 8 8
12 9 11 15 14 13 13 13 13 14 12 12 11 10 10 9 9 8 7 7 6 5 4 2 2 2 2 2 2 3 3 2 4 4 3 5 4 7 9 10 9 10 10
12 10 15 16 15 14 13 14 14 13 12 12 11 10 10 9 8 7 6 6 5 5 4 4 4 4 5 5 5 5 5 3 3 4 4 6 5 10 13 12 11 10 10
13 9 12 16 15 14 14 14 14 13 12 11 11 10 9 8 8 8 7 6 6 6 7 7 7 7 6 5 6 6 7 8 3 3 4 6 9 13 13 13 13 11 10
15 11 11 16 16 15 15 14 14 12 12 11 10 10 9 8 8 8 7 8 9 10 10 9 9 7 6 7 6 6 8 9 7 2 4 1 8 14 16 14 13 16 13
13 11 9 9 12 16 15 14 13 12 11 10 9 9 9 9 10 10 10 11 12 12 12 11 9 8 9 7 6 6 8 9 6 1 2 1 6 13 13 13 15 16 15
12 10 7 6 7 6 7 15 13 12 11 10 11 11 11 11 11 10 10 11 13 13 13 11 11 10 9 7 8 8 9 7 4 5 4 4 1 5 11 15 15 16 19
9 10 10 9 7 6 6 7 11 12 11 12 11 12 9 4 5 7 10 13 15 14 13 13 12 10 8 5 4 10 11 3 5 3 1 2 17 13 20 14 14 16 15
12 10 9 9 8 7 7 6 6 6 5 5 5 5 4 4 4 8 10 15 16 15 14 14 13 10 5 4 3 7 3 4 3 3 1 7 16 18 18 21 18 19 18
14 10 11 9 10 9 6 4 2 3 3 3 5 6 6 4 4 4 3 4 3 9 3 7 6 4 8 5 3 5 5 3 1 3 2 9 15 19 12 17 17 19 20
13 13 12 9 9 9 3 4 4 4 4 4 5 7 4 3 4 4 3 3 4 4 6 5 3 4 6 6 8 8 7 2 2 2 8 14 18 19 19 15 18 19 21
15 12 13 8 8 6 5 4 4 5 5 5 5 5 3 4 3 3 4 3 5 3 5 3 2 4 6 8 7 7 8 7 6 5 5 17 15 18 19 18 16 16 17
12 13 10 8 8 8 5 6 4 4 5 3 4 4 6 4 4 3 2 3 4 3 3 3 4 5 6 6 7 9 10 8 9 10 7 6 16 14 18 20 21 16 19
11 13 11 8 8 7 5 5 4 4 3 4 4 5 5 4 5 3 4 5 5 4 4 3 5 4 5 4 8 8 8 10 9 10 7 5 7 16 19 21 20 19 20
11 13 8 8 7 7 5 3 3 4 4 4 3 3 4 4 6 4 3 2 2 0 2 3 2 1 2 3 3 2 2 2 4 6 5 5 5 7 14 20 21 17 16
14 11 9 8 8 8 6 4 4 5 2 3 3 4 3 5 6 5 3 2 2 1 1 2 2 1 2 3 3 1 0 3 3 5 5 6 6 6 6 15 21 18 15
13 12 10 8 8 7 4 3 2 3 3 4 4 5 6 5 6 6 3 2 2 2 2 3 1 2 1 3 2 3 3 3 3 3 5 3 3 5 5 5 5 4 11
12 11 11 10 8 5 2 3 1 3 3 4 4 7 7 5 6 5 4 4 4 5 4 3 2 2 2 1 1 3 3 3 4 3 3 2 1 4 5 4 2 1 2
15 14 11 13 10 7 4 3 3 3 4 3 3 4 3 5 6 7 7 5 4 3 5 4 2 1 3 2 2 1 2 2 2 4 3 3 4 3 3 3 2 2 2
14 14 12 12 12 9 8 3 1 1 2 2 1 3 5 7 7 7 8 5 4 3 3 2 3 4 2 2 3 3 1 4 1 3 6 4 3 1 2 1 1 2 3
17 14 13 13 11 11 9 5 5 4 3 3 3 3 5 7 7 6 6 5 5 3 3 3 2 3 2 3 2 2 3 3 4 3 2 1 1 1 1 2 2 3 2
16 15 13 12 11 10 9 8 6 5 4 2 2 5 5 7 4 5 6 6 6 4 4 4 3 4 3 2 3 2 2 3 4 4 4 2 1 1 0 1 1 0 2
14 13 12 11 11 10 9 9 9 8 6 3 4 3 3 4 3 4 6 5 5 4 4 3 3 3 4 3 2 2 3 3 3 3 3 1 2 2 2 2 2 3 3
Wind_Direction
165 142 126 111 101 95 96 101 107 106 112 112 112 114 114 112 109 104 107 108 100 96 96 92 88 89 89 85 79 84 90 96 103 99 95 114 115 121 131 124 120 124 125
142 145 133 121 112 105 103 106 110 112 113 116 115 115 116 116 115 117 108 99 96 93 92 95 95 92 89 88 90 86 89 103 111 119 118 126 115 136 136 125 123 128 131
137 141 135 134 124 117 115 111 117 116 119 122 124 121 121 123 124 119 118 120 116 114 113 111 105 94 88 87 94 93 72 70 86 123 99 32 359 94 149 137 141 145 144
140 138 141 142 134 131 126 126 122 122 127 128 130 132 134 135 132 132 141 137 134 142 145 152 129 119 132 182 28 37 45 25 4 183 195 242 274 163 151 148 150 155 156
142 143 154 149 145 135 134 132 130 130 133 139 138 139 141 139 140 149 148 144 154 166 175 177 166 176 204 220 264 300 313 315 310 278 208 252 190 197 172 163 171 169 165
146 152 156 154 147 146 144 143 136 139 143 141 139 146 150 156 153 156 161 161 167 192 203 206 207 208 227 240 248 259 277 290 293 302 314 246 202 216 178 179 179 184 178
145 154 155 155 154 156 155 148 147 151 152 153 157 160 163 165 171 178 183 188 205 214 216 217 220 222 233 250 267 290 299 304 289 233 253 244 198 206 193 187 179 191 193
145 154 163 155 160 162 161 161 159 158 161 167 171 175 181 185 196 201 204 210 220 225 229 224 225 232 241 247 252 262 280 292 298 297 286 234 215 200 199 192 206 180 195
149 153 156 160 167 168 169 172 172 172 178 181 186 195 198 204 210 213 218 226 230 233 235 233 231 231 234 243 258 266 269 281 289 209 168 230 252 222 217 199 196 189 188
152 155 160 172 171 175 176 181 182 186 186 196 203 206 210 211 219 229 233 236 238 242 243 239 231 229 234 241 243 243 240 214 236 199 198 150 199 200 247 234 216 204 185
158 171 173 178 175 185 190 200 192 195 198 205 214 218 223 219 227 238 230 236 238 240 247 246 241 234 226 235 228 216 199 183 228 239 299 128 134 152 180 218 245 223 210
169 187 185 180 181 187 194 196 189 203 210 207 211 230 249 230 232 233 237 242 241 241 234 242 237 232 124 167 208 208 232 195 205 252 169 176 178 197 208 217 214 229 214
178 177 188 183 187 189 202 179 178 203 227 232 229 223 225 223 243 244 247 251 251 252 227 239 230 187 171 177 208 236 250 155 97 287 197 218 212 225 242 231 216 232 216
174 182 191 187 185 198 185 172 185 195 211 222 227 225 212 213 241 248 234 253 252 210 232 226 239 161 181 195 193 224 253 206 201 273 266 208 221 235 246 256 227 241 225
178 179 188 158 185 191 179 175 202 210 204 221 220 236 191 201 207 220 241 207 257 264 224 227 215 181 190 209 222 229 239 237 215 245 257 256 222 238 249 253 253 244 229
149 165 161 167 150 148 168 169 183 185 215 209 230 220 230 198 217 202 163 156 245 290 327 245 218 190 217 214 234 232 240 229 219 221 232 244 233 233 243 244 254 253 243
163 156 163 159 141 155 176 169 154 179 173 216 205 211 230 203 213 199 205 194 199 179 246 286 281 195 228 231 235 229 230 230 227 221 210 200 228 234 239 239 247 256 249
153 161 158 159 155 161 191 198 205 182 201 214 229 233 230 215 209 203 226 257 234 348 204 277 341 226 261 180 192 180 267 232 154 168 183 187 216 232 242 247 239 239 236
163 160 162 155 172 176 200 212 231 245 209 265 254 246 218 185 214 225 224 212 245 319 267 251 284 219 285 310 307 48 184 212 165 157 165 180 205 239 254 254 236 219 218
164 168 162 166 179 187 192 222 273 288 272 252 236 248 199 179 203 243 240 204 259 289 291 228 224 270 239 318 299 299 286 216 171 163 155 139 245 273 264 275 302 259 256
166 163 170 164 190 164 167 206 191 224 246 247 231 235 213 174 191 218 253 239 237 210 209 230 234 287 311 330 312 317 341 110 131 106 107 161 242 308 294 295 289 243 263
171 178 170 182 178 188 188 194 177 189 223 209 212 235 245 210 204 191 223 222 202 165 222 211 172 224 251 210 184 145 304 349 210 191 181 196 229 252 275 250 197 196 249
176 179 175 180 182 186 196 165 210 323 326 29 249 274 245 238 233 198 203 211 201 182 217 195 199 201 226 282 196 167 314 241 239 167 215 222 230 272 305 314 212 321 284
188 181 178 173 177 183 184 175 170 190 217 211 204 230 251 233 225 220 214 220 210 194 213 223 210 221 166 257 309 226 235 197 221 305 212 193 210 274 258 257 292 315 340
182 188 186 183 182 184 180 183 181 195 227 281 276 281 267 252 237 222 209 228 229 219 230 202 222 221 209 228 214 226 236 232 226 216 272 140 68 35 190 248 274 344 304
189 188 188 186 197 194 188 187 190 205 222 218 243 282 278 267 263 257 242 218 217 212 225 222 255 263 267 257 251 238 214 241 248 226 232 143 117 15 57 30 6 341 334